STARLINK-30232, 57303

Orbit data source: Space-Track

STARLINK-30232, 57303 is a payload satellite owned by SpaceX/Seattle (US) in LEO that was launched on Mon, 10 Jul 2023 UTC via an FALCON 9 launch vehicle from the Air Force Eastern Test Range (AFETR). Payload-class satellites include a variety of spacecraft equipped with specific instruments for various scientific and technological missions. These include communications satellites like Starlink; space stations such as the ISS; scientific satellites like the Hubble; Earth observation satellites from companies like Planet Labs, Umbra, and HawkEye 360; GPS; miniature CubeSats for education and research; and military/defense satellites.

Loading next visibility...
Identifier
57303, 2023-096P
Orbit
LEO
Country
Flag of USUS
Related business
Manufacturer
SpaceX/Seattle
Mission
Partially operational Commercial Communications
Bus & Motor
STARLINK V2M, Unknown motor
Mass
730 kg wet, ~700 kg dry
Launch date (UTC)
2023-07-10 (2 years ago)
Launch vehicle
FALCON 9
Launch site
Air Force Eastern Test Range (AFETR)
Object type
Payload
Rocket body
Debris
Shape & HBR
Box + 2 Pan, 14.5 m
Radar Cross Section
33.884 m², Large (>1 m²)

Expand to show TLE details & history
Last TLE update: 22 hours ago

TLE from 22 hours ago
0 STARLINK-30232
1 57303U 23096P   25241.16198914  .00074163  00000-0  36183-2 0  9995
2 57303  42.9954 177.6584 0016032 162.9201 197.2189 15.17282219118650
Epoch: 2025-08-29T03:53Z
TLE epoch observation values (Epoch: 2025-08-29T03:53:15.861Z)
Latitude
-0.00004°
Longitude
141.72767°
Altitude
524.389 km
Speed
7.597 km/s
True Right ascension
11h 50m 38s
True Declination
0° 00' 00"
Sunlit
Object was in daylight at epoch
Visualization orbit readout
Latitude
Unknown
Longitude
Unknown
Altitude
Unknown
Speed
Unknown
Apparent Right ascension
Unknown
Apparent Declination
Unknown
Sunlit
N/A
Visualization observer readout
Local Sidereal Time
17:05:54
Azimuth
Unknown
Elevation
Unknown
Doppler factor
Unknown
Orbital elements
Apogee altitude
527.049 km
Perigee altitude
504.943 km
Semi-major axis
6,894.133 km
Eccentricity
0.0016
Inclination
42.9954°
RAAN
177.6584°
Arg. of periapsis
162.9201°
True anomaly
197.16462°
Mean anomaly
197.2189°
Eccentric anomaly
197.19175°
Mean motion
3.79161 °/min
Orbital period
94.95 mins
BSTAR
0.0036183
Loading maneuver chart data...
Computing Atmospheric mass density...
Loading historical data...
Loading historical data...
Loading historical data...
Loading historical data...
Loading historical data...
Loading historical data...
Loading historical data...

Documentation

Showing up to 5 results
|